Showing default

LES 5, 2866

Orbit data source: Space-Track

LES 5, 2866 is a payload satellite owned by SAMSO (US) in GEO that was launched on Sat, 01 Jul 1967 UTC via a TITAN IIIC launch vehicle from the Air Force Eastern Test Range (AFETR). Payload-class satellites include a variety of spacecraft equipped with specific instruments for various scientific and technological missions. These include communications satellites like Starlink; space stations such as the ISS; scientific satellites like the Hubble; Earth observation satellites from companies like Planet Labs, Umbra, and HawkEye 360; GPS; miniature CubeSats for education and research; and military/defense satellites.

Loading next visibility...
Identifier
2866, 1967-066E
Orbit
GEO
Country
Flag of USUS
Related business
Manufacturer
MIT-LL
Mission
Partially operational spacecraft
Bus & Motor
LES, Unknown motor
Mass
102 kg wet, 102 kg dry
Launch date (UTC)
1967-07-01 (59 years ago)
Launch vehicle
TITAN IIIC
Launch site
Air Force Eastern Test Range (AFETR)
Object type
Payload
Rocket body
Debris
Shape & HBR
Unknown
Radar Cross Section
Large (>1 m²)

Expand to show TLE details & history
Last TLE update: 19 hours ago

TLE from 19 hours ago
0 LES 5
1 02866U 67066E   26175.21746351 -.00000098  00000-0  00000-0 0  9995
2 02866   2.6394  96.1390 0051865 214.1532 277.9623  1.09426132131110
Epoch: 2026-06-24T05:13Z
TLE epoch observation values (Epoch: 2026-06-24T05:13:08.847Z)
Latitude
1.96214°
Longitude
-122.95949°
Altitude
33,371.75 km
Speed
3.168 km/s
True Right ascension
15h 10m 49s
True Declination
1° 57' 36"
Sunlit
Object was in daylight at epoch
Visualization orbit readout
Latitude
Unknown
Longitude
Unknown
Altitude
Unknown
Speed
Unknown
Apparent Right ascension
Unknown
Apparent Declination
Unknown
Sunlit
N/A
Visualization observer readout
Local Sidereal Time
11:49:27
Azimuth
Unknown
Elevation
Unknown
Doppler factor
Unknown
Orbital elements
Apogee altitude
33,608.367 km
Perigee altitude
33,195.727 km
Semi-major axis
39,780.184 km
Eccentricity
0.00519
Inclination
2.6394°
RAAN
96.139°
Arg. of periapsis
214.1532°
True anomaly
277.37318°
Mean anomaly
277.9623°
Eccentric anomaly
277.66779°
Mean motion
0.27355 °/min
Orbital period
1,316.01 mins
BSTAR
0
Loading maneuver chart data...
Computing Atmospheric mass density...
Loading historical data...
Loading historical data...
Loading historical data...
Loading historical data...
Loading historical data...
Loading historical data...
Loading historical data...

Documentation

Showing up to 5 results
|